Regional Weather Roundup
Issued by NWS

Home | Current Version | Previous Version | Graphics & Text | Print | Product List | Glossary On
Versions: 1 2 3 4 5 6 7 8 9 10 11 12 13 14 15 16 17 18 19 20 21 22 23 24 25 26 27 28 29 30 31 32 33 34 35 36 37 38 39 40 41 42 43 44 45 46 47 48 49 50
000
ASUS43 KFSD 251610
RWRSD

WEATHER ROUNDUP FOR SOUTH DAKOTA
NATIONAL WEATHER SERVICE SIOUX FALLS SD
1100 AM CDT TUE APR 25 2017

NOTE: "FAIR" INDICATES FEW OR NO CLOUDS BELOW 12,000 FEET WITH NO
SIGNIFICANT WEATHER AND/OR OBSTRUCTIONS TO VISIBILITY.


SDZ001>005-009-010-012>017-251700-
NORTHWEST AND NORTH CENTRAL SOUTH DAKOTA

CITY           SKY/WX    TMP DP  RH WIND       PRES   REMARKS
BUFFALO          N/A     28  27  96 NE18      29.74R WCI  15
FAITH            N/A     29  29 100 N20       29.76S WCI  16
MOBRIDGE       CLOUDY    33  28  81 N13       29.78R WCI  24
$$

SDZ012>016-024>037-041>051-057-063-072>074-251700-
SOUTHWEST AND SOUTH CENTRAL SOUTH DAKOTA

CITY           SKY/WX    TMP DP  RH WIND       PRES   REMARKS
RAPID CTY ARPT LGT SNOW  30  28  92 N14       29.73R VSB 3/4 WCI  19
PIERRE         CLOUDY    35  30  82 N16       29.73F WCI  25
CUSTER         LGT SNOW  25  21  85 NE13G24   29.61R FOG     WCI  14
ELLSWORTH AFB  LGT SNOW  30  30 100 N10       29.73  VSB 1   WCI  21
PHILIP         LGT SNOW  32  31  96 NE18      29.73R VSB 3/4 WCI  20
PINE RIDGE     LGT SNOW  33  32  96 NE12      29.66S FOG     WCI  24
SPEARFISH      SNOW      27  27 100 E12       29.74R VSB<1/4 WCI  16
WINNER         CLOUDY    36  33  89 N14       29.69S
$$

SDZ004>011-016>023-039-040-251700-
NORTHEAST SOUTH DAKOTA

CITY           SKY/WX    TMP DP  RH WIND       PRES   REMARKS
ABERDEEN       CLOUDY    34  28  79 N17       29.75R WCI  23
WATERTOWN      CLOUDY    35  34  96 N16       29.65R FOG     WCI  25
BROOKINGS      CLOUDY    37  34  87 N14       29.64S
SISSETON         N/A     35  33  92 N18       29.70R WCI  24
$$

SDZ017-020-022-023-036>040-048>070-251700-
SOUTHEAST SOUTH DAKOTA

CITY           SKY/WX    TMP DP  RH WIND       PRES   REMARKS
SIOUX FALLS    CLOUDY    42  38  85 N13       29.61F
HURON          CLOUDY    37  33  85 N20       29.71R
CHAMBERLAIN    CLOUDY    37  33  86 N9        29.71F
MITCHELL       CLOUDY    38  34  85 N16       29.68F
YANKTON        CLOUDY    39  36  87 NW21      29.60F
$$

ABBREVIATIONS USED IN REMARKS
   TC - TEMPERATURE IN CELSIUS
  WCI - WIND CHILL INDEX
   HX - HEAT INDEX
  VSB - VISIBILITY





USA.gov is the U.S. government's official web portal to all federal, state and local government web resources and services.